sat.trackr.live / text

‹ back to catalog

HULIANWANG DIGUI-157

NORAD 68131 · 2026-047C

PAYLOAD ACTIVE UNKNOWN

§ Identity

Operator
Country
PRC
Launch date
2026-03-12
Launch site
WSC
Launch vehicle
Mass (kg)
RCS (m²)

External: N2YO · Heavens-Above · Gunter

§ Orbital elements

Epoch: 2026-09-19T22:31:34.868064Z

Period
108.33 min
Inclination
49.9995°
Eccentricity
0.0001187
Mean motion
13.29325569 rev/d
Perigee alt
1,148.4 km
Apogee alt
1,150.2 km
Semi-major
7,527.4 km
B*
3.6606e-5
RAAN
76.3611°
Arg perigee
88.7117°
Mean anomaly
271.3891°
Rev number
2,567

§ Raw data

HULIANWANG DIGUI-1571 68131U 26047C   26262.93859801 -.00000107  00000+0  36606-4 0  99922 68131  49.9995  76.3611 0001187  88.7117 271.3891 13.29325569 25675

JSON: /api/v1/satellites/68131 · /tle

For live sub-satellite position, see the globe view (requires WebGL).

§ Visibility from observer

Set your observer location to see the next 7 days of passes ≥ 10°. The values pass through the URL so the page stays shareable.

No JS? Fill the form by hand. The geolocation button needs JavaScript.